Location: Lafig�re
(44.4503°N, 4.0357°E)
Time: 17:02:27
(UTC+00:00)

Meteor 2-5 Rocket - Visible Passes

Search period start: 20 June 2021 00:00
Search period end: 30 June 2021 00:00
Orbit: 833 x 912 km, 81.2° (Epoch: 19 June)

Date Brightness Start Highest point End Pass type
(mag) Time Alt. Az. Time Alt. Az. Time Alt. Az.
20 Jun 5.1 20:19:05 10° SE 20:23:04 21° E 20:27:06 10° NE visible
20 Jun 4.3 22:01:10 13° SSW 22:05:58 55° WNW 22:11:30 10° N visible
21 Jun 5.0 20:13:26 10° SE 20:17:32 22° E 20:21:40 10° NE visible
21 Jun 4.4 21:55:10 10° SSW 22:00:27 53° WNW 22:05:58 10° N visible
22 Jun 5.0 20:07:47 10° SE 20:11:58 23° E 20:16:14 10° NE visible
22 Jun 4.5 21:49:35 10° SSW 21:54:57 50° WNW 22:00:27 10° N visible
23 Jun 4.9 20:02:08 10° SE 20:06:26 24° E 20:10:48 10° NE visible
23 Jun 4.6 21:44:06 10° SSW 21:49:26 48° WNW 21:54:55 10° N visible
24 Jun 4.7 21:38:37 10° SSW 21:43:57 46° WNW 21:49:23 10° N visible
25 Jun 4.8 21:33:09 10° SW 21:38:27 44° WNW 21:43:52 10° N visible
26 Jun 4.9 21:27:40 10° SW 21:32:56 43° WNW 21:38:21 10° N visible
27 Jun 5.0 21:22:12 10° SW 21:27:26 41° WNW 21:32:48 10° N visible
28 Jun 5.1 21:16:44 10° SW 21:21:57 39° WNW 21:27:17 10° N visible
29 Jun 5.2 21:11:16 10° SW 21:16:27 38° WNW 21:21:44 10° N visible
